Total_Precipitation_Accumulation
0.00 0.00 0.01 0.02 0.05 0.11 0.23 0.28 0.34 0.47 0.52 0.48 0.48 0.54 0.63 0.67 0.81 1.47 0.91 0.41 0.29 0.19 0.20 0.20 0.20 0.21 0.21 0.22 0.27 0.29 0.28 0.26 0.25 0.22 0.22 0.23 0.23 0.24 0.24 0.28 0.42 0.47 0.45 0.39 0.38 0.39 0.37 0.33 0.30
0.01 0.01 0.02 0.03 0.07 0.19 0.27 0.30 0.38 0.48 0.45 0.40 0.44 0.49 0.46 0.45 0.43 0.46 0.54 0.38 0.28 0.20 0.20 0.15 0.16 0.18 0.18 0.18 0.20 0.25 0.28 0.28 0.24 0.22 0.23 0.23 0.25 0.26 0.27 0.30 0.44 0.62 0.61 0.58 0.49 0.43 0.40 0.36 0.31
0.01 0.02 0.03 0.03 0.08 0.23 0.30 0.31 0.36 0.42 0.37 0.41 0.47 0.52 0.54 0.49 0.44 0.46 0.46 0.29 0.28 0.25 0.21 0.18 0.15 0.15 0.16 0.17 0.19 0.26 0.32 0.38 0.33 0.29 0.28 0.26 0.25 0.27 0.31 0.36 0.43 0.62 0.66 0.63 0.55 0.51 0.46 0.41 0.35
0.01 0.02 0.02 0.03 0.11 0.21 0.29 0.35 0.45 0.50 0.41 0.43 0.45 0.59 0.65 0.55 0.54 0.51 0.46 0.37 0.29 0.29 0.27 0.21 0.19 0.17 0.17 0.19 0.19 0.24 0.40 0.43 0.37 0.35 0.33 0.32 0.32 0.31 0.37 0.46 0.49 0.49 0.54 0.58 0.61 0.62 0.51 0.40 0.35
0.02 0.03 0.02 0.05 0.11 0.19 0.33 0.42 0.57 0.58 0.43 0.39 0.46 0.72 0.86 0.78 0.71 0.66 0.55 0.47 0.38 0.34 0.37 0.28 0.25 0.25 0.25 0.23 0.22 0.27 0.37 0.42 0.43 0.45 0.43 0.38 0.38 0.40 0.44 0.52 0.57 0.56 0.60 0.60 0.60 0.63 0.55 0.45 0.42
0.02 0.02 0.03 0.08 0.12 0.22 0.28 0.42 0.47 0.54 0.47 0.43 0.57 0.95 1.29 1.28 1.15 1.01 0.89 0.63 0.51 0.41 0.48 0.42 0.34 0.31 0.30 0.30 0.28 0.33 0.41 0.48 0.52 0.50 0.44 0.42 0.42 0.44 0.49 0.53 0.56 0.61 0.64 0.58 0.52 0.54 0.56 0.56 0.52
0.02 0.02 0.04 0.08 0.16 0.22 0.28 0.45 0.51 0.56 0.54 0.55 0.77 1.01 1.30 1.44 1.45 1.36 1.20 0.93 0.87 0.77 0.80 0.71 0.54 0.46 0.43 0.47 0.48 0.44 0.44 0.48 0.54 0.56 0.49 0.45 0.45 0.45 0.47 0.50 0.53 0.55 0.54 0.52 0.51 0.54 0.52 0.52 0.52
0.02 0.01 0.04 0.11 0.19 0.26 0.36 0.55 0.53 0.52 0.57 0.67 0.93 1.15 1.48 1.46 1.28 1.41 1.40 1.23 1.22 1.27 1.24 0.88 0.69 0.67 0.72 0.71 0.65 0.58 0.53 0.53 0.54 0.54 0.55 0.51 0.48 0.50 0.54 0.51 0.54 0.54 0.56 0.54 0.52 0.53 0.53 0.54 0.56
0.01 0.02 0.05 0.13 0.23 0.28 0.30 0.47 0.47 0.40 0.45 0.63 0.92 1.06 1.22 1.16 1.14 1.41 1.51 1.63 1.71 1.52 1.33 1.18 0.96 0.89 0.89 0.82 0.70 0.70 0.68 0.65 0.66 0.64 0.61 0.60 0.60 0.70 0.73 0.65 0.71 0.69 0.68 0.62 0.62 0.63 0.61 0.60 0.59
0.02 0.02 0.05 0.11 0.16 0.23 0.30 0.42 0.39 0.43 0.47 0.59 0.73 0.98 1.20 1.14 1.32 1.47 1.60 1.91 1.80 1.73 1.55 1.44 1.32 1.14 1.07 0.90 0.92 0.92 0.88 0.88 0.85 0.93 0.87 0.93 1.11 1.20 1.10 1.20 1.14 1.02 0.92 0.85 0.86 0.88 0.79 0.69 0.63
0.03 0.04 0.07 0.11 0.12 0.19 0.30 0.39 0.38 0.50 0.66 0.93 1.03 1.07 1.15 1.17 1.38 1.61 1.86 2.18 2.20 1.98 1.67 1.62 1.59 1.56 1.52 1.50 1.34 1.24 1.25 1.31 1.26 1.39 1.30 1.39 1.49 1.45 1.48 1.60 1.44 1.30 1.20 1.16 1.22 1.10 0.88 0.84 0.91
0.06 0.07 0.12 0.12 0.15 0.25 0.39 0.48 0.63 0.70 0.83 1.06 1.15 1.11 1.23 1.31 1.46 1.64 1.91 2.20 2.42 2.33 2.11 2.09 1.87 1.81 1.88 2.08 1.99 1.62 1.54 1.55 1.52 1.72 1.65 1.79 1.93 1.93 2.02 2.06 1.84 1.78 1.75 1.75 1.63 1.52 1.35 1.25 1.20
0.07 0.09 0.12 0.11 0.19 0.31 0.47 0.51 0.61 0.61 0.52 0.79 0.99 1.12 1.26 1.25 1.44 1.62 1.94 2.49 2.77 2.75 2.57 2.52 2.39 2.28 2.32 2.57 2.60 2.09 1.96 2.07 2.27 2.36 2.18 2.17 2.17 2.22 2.41 2.38 2.27 2.17 2.26 2.19 2.04 1.84 1.85 1.81 1.64
0.04 0.06 0.08 0.12 0.18 0.26 0.39 0.39 0.51 0.68 0.62 0.73 0.86 1.04 1.26 1.49 1.76 2.02 2.30 2.73 3.03 3.13 2.99 2.87 2.78 2.74 2.69 2.79 2.83 2.79 2.55 2.59 2.76 2.83 2.79 2.61 2.59 2.75 2.91 2.87 2.69 2.47 2.47 2.42 2.34 2.28 2.34 2.26 2.19
0.05 0.06 0.09 0.15 0.21 0.25 0.29 0.46 0.60 0.72 0.75 0.82 0.90 1.03 1.26 1.57 1.85 2.12 2.61 2.91 2.97 3.01 2.96 3.03 2.97 3.03 3.08 3.16 3.07 3.15 3.14 3.18 3.29 3.31 3.13 2.92 2.90 3.22 3.29 3.31 3.03 2.80 2.76 2.88 2.83 2.76 2.73 2.48 2.39
0.08 0.09 0.12 0.18 0.21 0.28 0.27 0.52 0.70 0.58 0.62 0.76 0.93 1.07 1.17 1.39 1.81 2.18 2.57 2.79 2.96 3.32 3.32 3.31 3.29 3.33 3.40 3.43 3.37 3.37 3.37 3.66 3.72 3.71 3.60 3.32 3.22 3.34 3.42 3.43 3.30 3.15 3.08 3.30 3.42 3.35 3.26 3.08 2.99
0.11 0.13 0.15 0.20 0.21 0.26 0.28 0.51 0.67 0.63 0.61 0.76 1.12 1.36 1.33 1.48 1.92 2.35 2.69 2.93 3.08 3.25 3.44 3.39 3.43 3.61 3.59 3.62 3.48 3.62 3.80 3.82 3.76 3.75 3.78 3.72 3.64 3.70 3.73 3.65 3.64 3.65 3.71 3.70 3.50 3.59 3.45 3.44 3.34
0.14 0.14 0.17 0.21 0.24 0.23 0.29 0.48 0.69 0.77 0.90 0.97 1.16 1.38 1.51 1.58 1.77 2.13 2.60 3.04 3.17 3.19 3.15 3.28 3.33 3.46 3.54 3.77 3.77 3.82 3.97 4.13 4.29 4.41 4.43 4.20 4.16 4.12 4.31 4.28 4.19 4.18 4.14 3.94 3.86 3.83 3.64 3.47 3.34
0.13 0.16 0.19 0.23 0.24 0.29 0.36 0.48 0.73 0.89 1.05 1.05 1.10 1.21 1.33 1.62 1.81 2.13 2.49 2.79 3.30 3.31 3.17 3.26 3.43 3.61 3.71 3.98 4.07 4.30 4.64 4.87 5.03 5.07 4.93 4.91 4.80 4.90 4.94 4.75 4.52 4.38 4.37 4.28 4.23 4.03 3.79 3.52 3.40
0.15 0.24 0.28 0.25 0.24 0.32 0.46 0.60 0.79 0.94 1.02 0.99 1.09 1.29 1.43 1.82 2.16 2.31 2.50 2.90 3.37 3.51 3.51 3.53 3.72 4.03 4.24 4.46 4.92 5.22 5.48 5.72 5.92 5.95 5.52 5.32 5.21 5.10 5.02 5.05 4.95 4.75 4.56 4.36 4.17 4.09 3.90 3.56 3.45
0.12 0.18 0.23 0.25 0.23 0.31 0.51 0.79 0.95 1.05 1.17 1.31 1.52 1.72 1.84 2.05 2.39 2.46 2.55 2.91 3.23 3.39 3.47 3.60 3.83 4.26 4.80 5.18 5.65 6.06 6.21 6.25 6.11 5.85 5.74 5.59 5.43 5.27 5.11 4.98 4.75 4.60 4.47 4.30 4.10 3.92 3.81 3.58 3.44
0.11 0.13 0.20 0.19 0.22 0.33 0.46 0.86 1.20 1.30 1.43 1.69 1.91 1.92 2.01 2.18 2.36 2.48 2.64 2.89 3.18 3.39 3.50 3.82 4.30 4.89 5.44 5.93 6.47 6.95 7.05 6.89 6.59 6.13 5.71 5.46 5.22 4.90 4.66 4.53 4.41 4.24 3.94 3.70 3.54 3.45 3.30 3.18 3.04
0.11 0.10 0.17 0.18 0.16 0.29 0.42 0.73 1.45 1.63 1.74 1.98 2.20 2.00 1.96 1.96 2.02 2.26 2.44 2.63 3.01 3.20 3.39 3.75 4.30 4.98 5.67 6.49 7.19 7.62 7.54 7.20 6.76 6.08 5.50 5.04 4.63 4.27 4.01 3.87 3.70 3.49 3.14 2.79 2.65 2.72 2.80 2.81 2.74
0.10 0.11 0.15 0.17 0.19 0.33 0.34 0.63 1.35 1.81 2.02 2.14 2.08 1.90 1.86 1.76 1.75 1.87 1.97 2.22 2.53 2.82 3.11 3.52 4.12 4.82 5.47 6.12 6.66 6.90 6.80 6.60 6.07 5.38 4.75 4.35 4.02 3.67 3.32 3.01 2.74 2.51 2.35 2.16 2.11 2.13 2.21 2.40 2.52
0.10 0.13 0.33 0.45 0.49 0.49 0.39 0.67 1.32 1.71 1.86 1.80 1.73 1.76 1.65 1.65 1.64 1.63 1.67 1.88 2.20 2.41 2.78 3.20 3.63 4.26 4.68 5.02 5.44 5.63 5.65 5.43 5.13 4.65 4.18 3.74 3.26 2.91 2.63 2.35 2.22 2.07 1.96 1.90 1.88 1.84 1.80 1.91 2.09
0.10 0.11 0.35 0.60 0.58 0.59 0.61 1.01 1.55 1.62 1.59 1.51 1.45 1.48 1.51 1.52 1.51 1.55 1.65 1.81 2.07 2.21 2.40 2.62 2.92 3.29 3.46 3.51 3.75 3.98 4.00 3.95 3.83 3.54 3.22 2.93 2.57 2.19 1.95 1.75 1.63 1.61 1.65 1.59 1.62 1.61 1.61 1.63 1.70
0.08 0.09 0.15 0.32 0.37 0.65 0.98 1.41 1.87 1.75 1.69 1.61 1.58 1.43 1.37 1.34 1.38 1.49 1.58 1.58 1.63 1.73 1.85 1.94 2.11 2.28 2.37 2.45 2.50 2.63 2.65 2.64 2.56 2.40 2.17 1.98 1.82 1.59 1.43 1.33 1.33 1.31 1.33 1.38 1.37 1.33 1.36 1.45 1.50
0.08 0.13 0.19 0.35 0.63 0.88 1.19 1.77 2.35 2.28 1.93 1.65 1.47 1.26 1.14 1.19 1.27 1.36 1.44 1.43 1.43 1.43 1.52 1.59 1.66 1.73 1.77 1.84 1.80 1.80 1.81 1.82 1.77 1.64 1.57 1.48 1.36 1.25 1.24 1.17 1.11 1.04 1.03 1.04 1.08 1.11 1.15 1.20 1.28
0.15 0.19 0.26 0.38 0.47 0.84 1.34 2.07 2.27 2.45 2.35 1.91 1.58 1.39 1.26 1.18 1.16 1.24 1.24 1.23 1.22 1.23 1.28 1.35 1.38 1.37 1.37 1.36 1.33 1.32 1.29 1.29 1.33 1.33 1.28 1.20 1.11 1.01 0.97 0.88 0.82 0.79 0.82 0.88 0.93 0.96 1.01 1.05 1.09
0.16 0.21 0.30 0.59 0.66 0.67 1.27 2.27 2.26 2.51 2.58 2.28 1.95 1.76 1.64 1.37 1.26 1.27 1.19 1.12 1.06 1.08 1.09 1.15 1.16 1.15 1.20 1.11 1.01 1.03 1.00 1.00 1.03 1.06 0.98 0.94 0.92 0.84 0.76 0.66 0.64 0.64 0.68 0.72 0.75 0.78 0.81 0.91 0.94